Tracking 30922 objects as of 2-Jul-2025
HD Live streaming from Space Station
objects crossing your sky now

METEOR 2-17 DEB

Track METEOR 2-17 DEB now!
10-day predictions


NORAD ID: 35369
Int'l Code: 1988-005AD
Perigee: 900.7 km
Apogee: 915.1 km
Inclination: 82.5 °
Period: 103.0 minutes
Semi major axis: 7278 km
RCS: 0.003 m2 (small)
Launch date: January 30, 1988
Source: Commonwealth of Independent States (former USSR) (CIS)
Launch site: PLESETSK MISSILE AND SPACE COMPLEX (PKMTR)

Note: This is SATELLITE DEBRIS
Your satellite tracking list
H-2A R/B
Track 1 satellite(s)




NASA's NSSDC Master Catalog

Two Line Element Set (TLE):
1 35369U 88005AD  25173.82392841  .00001689  00000-0  11801-2 0  9999
2 35369  82.5258 204.3079 0009922 285.2930 248.5614 13.97983412695663
Source of the keplerian elements: AFSPC